Location: Curupao
(10.4996°N, 66.6442°W)
Time: 12:21:07
(UTC+00:00)

ATLAS 2AS CENTAUR R/B - Pass Details

Date: 23 May 2024
Orbit: 1018 x 1193 km, 63.7° (Epoch: 24 June)

Event Time Altitude Azimuth Distance (km) Brightness Sun altitude
Rises 08:55:16 0° 342° (NNW) 3,776 5.7 -16.3°
Reaches altitude 10° 08:57:56 10° 345° (NNW) 2,811 5.0 -15.7°
Maximum altitude 09:04:26 63° 66° (ENE) 1,123 3.1 -14.3°
Drops below altitude 10° 09:10:55 10° 146° (SSE) 2,803 5.0 -12.8°
Sets 09:13:33 0° 150° (SSE) 3,765 5.7 -12.2°
